This is the latest recevied weather packets stored in our database for station/object DL3MEB-6. If no packets are shown the sender has not sent any weather packets the latest 10 day(s).
| Time | Temp. | Humidity | Pressure | Rain* | Wind** | Luminosity | Snow |
|---|---|---|---|---|---|---|---|
| 1777780983 | 7.78° C | 73% | 1014.3 hPa | 0 mm | - | - | - |
| 1777780077 | 8.33° C | 72% | 1014.2 hPa | 0 mm | - | - | - |
| 1777779172 | 8.33° C | 70% | 1014.2 hPa | 0 mm | - | - | - |
| 1777778258 | 8.89° C | 70% | 1014.4 hPa | 0 mm | - | - | - |
| 1777777349 | 8.89° C | 69% | 1014.4 hPa | 0 mm | - | - | - |
| 1777776444 | 8.89° C | 68% | 1014.4 hPa | 0 mm | - | - | - |
| 1777775536 | 9.44° C | 66% | 1014.6 hPa | 0 mm | - | - | - |
| 1777774634 | 9.44° C | 66% | 1014.5 hPa | 0 mm | - | - | - |
| 1777773734 | 9.44° C | 66% | 1014.5 hPa | 0 mm | - | - | - |
| 1777772827 | 10° C | 65% | 1014.3 hPa | 0 mm | - | - | - |
| 1777771916 | 10° C | 64% | 1014.3 hPa | 0 mm | - | - | - |
| 1777771019 | 10.56° C | 63% | 1014.5 hPa | 0 mm | - | - | - |
| 1777770106 | 10.56° C | 63% | 1014.5 hPa | 0 mm | - | - | - |
| 1777769197 | 10.56° C | 61% | 1014.6 hPa | 0 mm | - | - | - |
| 1777768288 | 11.11° C | 60% | 1014.7 hPa | 0 mm | - | - | - |
| 1777767387 | 11.11° C | 59% | 1014.9 hPa | 0 mm | - | - | - |
| 1777766480 | 11.67° C | 59% | 1015 hPa | 0 mm | - | - | - |
| 1777765567 | 11.67° C | 58% | 1014.9 hPa | 0 mm | - | - | - |
| 1777764666 | 11.67° C | 57% | 1015.1 hPa | 0 mm | - | - | - |
| 1777763765 | 12.22° C | 56% | 1015.4 hPa | 0 mm | - | - | - |
| 1777762864 | 12.22° C | 57% | 1015.2 hPa | 0 mm | - | - | - |
| 1777761953 | 12.78° C | 55% | 1015.4 hPa | 0 mm | - | - | - |
| 1777761041 | 12.78° C | 54% | 1015.5 hPa | 0 mm | - | - | - |
| 1777760135 | 13.33° C | 51% | 1015.7 hPa | 0 mm | - | - | - |
| 1777759227 | 13.33° C | 50% | 1015.9 hPa | 0 mm | - | - | - |
* Rain latest hour (hover to see other rain measurements)
** Current wind speed in m/s (hover to see current wind gust speed)